Naples, FL

3:09 AM EST on November 23, 2017 (GMT -0500)
Naples Municipal

Weather History for KAPF - September, 2012

Change the Weather History Date:

Wednesday, September 12, 2012

  Actual Average Record
Temperature  
Mean Temperature 84 °F 83 °F  
Max Temperature 92 °F 90 °F 96 °F (1964)
Min Temperature 75 °F 75 °F 66 °F (1961)
Cooling Degree Days 19 18  
Month to date cooling degree days 220 216  
Year to date cooling degree days 3115 2873  
Growing Degree Days 32 (Base 50)    
Moisture  
Dew Point 72 °F    
Average Humidity 73    
Maximum Humidity 94    
Minimum Humidity 52    
Precipitation  
Precipitation 0.00 in 0.25 in 1.93 in (2009)
Month to date precipitation 0.35 2.94  
Year to date precipitation 29.40 39.46  
Snow  
Snow 0.00 in - - ()
Month to date snowfall 0.0  
Since 1 July snowfall 0.0  
Since 1 September snowfall 0.0  
Snow Depth 0.00 in    
Sea Level Pressure  
Sea Level Pressure 30.03 in    
Wind  
Wind Speed 10 mph (NE)    
Max Wind Speed 21 mph    
Max Gust Speed 26 mph    
Visibility 9 miles    
Events      
T = Trace of Precipitation, MM = Missing Value Source: NWS Daily Summary

Daily Weather History Graph

Daily Weather History Graph

Search for Another Location

Airport or City:

Trip Planner

Search our weather history database for the weather conditions in past years. The results will help you decide how hot, cold, wet, or windy it might be!

Date:

Astronomy

Sep. 12, 2012 Rise Set
Actual Time 7:11 AM EDT 7:34 PM EDT
Civil Twilight 6:48 AM EDT 7:57 PM EDT
Nautical Twilight 6:21 AM EDT 8:24 PM EDT
Astronomical Twilight 5:54 AM EDT 8:51 PM EDT
Moon 3:44 AM EDT (9/12) 5:07 PM EDT (9/12)
Length of Visible Light 13h 08m
Length of Day
12h 22m
Waning Crescent, 14% of the Moon is Illuminated
Sep 12
Waning Crescent
Sep 15
New
Sep 22
First Quarter
Sep 29
Full
Oct 8
Last Quarter

Hourly Weather History & Observations

Time (EDT) Temp. Heat Index Dew Point Humidity Pressure Visibility Wind Dir Wind Speed Gust Speed Precip Events Conditions
12:53 AM 77.0 °F - 73.9 °F 90% 30.06 in 10.0 mi NE 6.9 mph - N/A   Overcast
1:53 AM 77.0 °F - 73.9 °F 90% 30.05 in 9.0 mi NE 8.1 mph - N/A   Partly Cloudy
2:53 AM 75.9 °F - 73.9 °F 94% 30.03 in 8.0 mi NE 8.1 mph - N/A   Clear
3:53 AM 75.9 °F - 73.9 °F 94% 30.02 in 8.0 mi NE 5.8 mph - N/A   Clear
4:53 AM 75.9 °F - 73.9 °F 94% 30.02 in 7.0 mi NE 4.6 mph - N/A   Clear
5:53 AM 75.9 °F - 73.9 °F 94% 30.03 in 8.0 mi NE 5.8 mph - N/A   Clear
6:53 AM 75.9 °F - 73.0 °F 91% 30.04 in 8.0 mi NE 5.8 mph - N/A   Clear
7:53 AM 75.9 °F - 73.9 °F 94% 30.06 in 10.0 mi NE 6.9 mph - N/A   Clear
8:53 AM 81.0 °F 86.2 °F 73.9 °F 79% 30.06 in 9.0 mi NE 9.2 mph - N/A   Clear
9:53 AM 82.9 °F 88.8 °F 73.0 °F 72% 30.06 in 10.0 mi NE 11.5 mph - N/A   Clear
10:53 AM 84.9 °F 90.7 °F 72.0 °F 65% 30.08 in 10.0 mi ENE 16.1 mph - N/A   Overcast
11:53 AM 87.1 °F 93.6 °F 72.0 °F 61% 30.07 in 10.0 mi ENE 17.3 mph - N/A   Mostly Cloudy
12:53 PM 89.1 °F 95.0 °F 71.1 °F 55% 30.06 in 10.0 mi NE 11.5 mph - N/A   Scattered Clouds
1:53 PM 89.1 °F 93.7 °F 69.1 °F 52% 30.04 in 10.0 mi East 12.7 mph - N/A   Partly Cloudy
2:53 PM 89.1 °F 93.7 °F 69.1 °F 52% 30.01 in 9.0 mi ENE 12.7 mph - N/A   Partly Cloudy
3:53 PM 90.0 °F 94.5 °F 69.1 °F 50% 29.99 in 10.0 mi ENE 8.1 mph - N/A   Partly Cloudy
4:53 PM 90.0 °F 96.4 °F 71.1 °F 54% 29.98 in 10.0 mi ENE 15.0 mph 20.7 mph N/A   Scattered Clouds
5:53 PM 88.0 °F 92.1 °F 69.1 °F 53% 29.98 in 10.0 mi NE 13.8 mph - N/A   Partly Cloudy
6:53 PM 84.9 °F 90.1 °F 71.1 °F 63% 29.99 in 10.0 mi NE 10.4 mph - N/A   Partly Cloudy
7:53 PM 82.9 °F 88.0 °F 72.0 °F 69% 30.00 in 10.0 mi NE 9.2 mph - N/A   Partly Cloudy
8:53 PM 82.0 °F 86.7 °F 72.0 °F 71% 30.02 in 10.0 mi NE 8.1 mph - N/A   Clear
9:53 PM 80.1 °F 83.8 °F 72.0 °F 76% 30.02 in 10.0 mi NE 10.4 mph - N/A   Clear
10:53 PM 79.0 °F - 73.0 °F 82% 30.03 in 10.0 mi NE 12.7 mph - N/A   Clear
11:53 PM 79.0 °F - 73.0 °F 82% 30.02 in 10.0 mi ENE 12.7 mph - N/A   Clear